Idaho Falls, ID

6:45 AM MDT on June 25, 2017 (GMT -0600)
Fanning

Weather History for KIDA - August, 2014

Change the Weather History Date:

Wednesday, August 20, 2014

  Actual Average Record
Temperature  
Mean Temperature 66 °F 66 °F  
Max Temperature 82 °F 85 °F 94 °F (2013)
Min Temperature 49 °F 48 °F 34 °F (1964)
Degree Days  
Heating Degree Days 0 1  
Month to date heating degree days 0 12  
Since 1 June heating degree days 130 192  
Since 1 July heating degree days 2 39  
Cooling Degree Days 1 3  
Month to date cooling degree days 76 73  
Year to date cooling degree days 279 228  
Since 1 June cooling degree days 278 226  
Growing Degree Days 16 (Base 50)    
Moisture  
Dew Point 52 °F    
Average Humidity 65    
Maximum Humidity 100    
Minimum Humidity 30    
Precipitation  
Precipitation 0.05 in 0.02 in 0.54 in (1968)
Month to date precipitation 1.74 0.31  
Year to date precipitation 5.69 6.75  
Sea Level Pressure  
Sea Level Pressure 29.87 in    
Wind  
Wind Speed 8 mph (NE)    
Max Wind Speed 25 mph    
Max Gust Speed 32 mph    
Visibility 10 miles    
Events Fog , Rain , Thunderstorm    
T = Trace of Precipitation, MM = Missing Value Source: NWS Daily Summary

Daily Weather History Graph

Daily Weather History Graph

Search for Another Location

Airport or City:

Trip Planner

Search our weather history database for the weather conditions in past years. The results will help you decide how hot, cold, wet, or windy it might be!

Date:

Astronomy

Aug. 20, 2014 Rise Set
Actual Time 6:38 AM MDT 8:23 PM MDT
Civil Twilight 6:08 AM MDT 8:53 PM MDT
Nautical Twilight 5:31 AM MDT 9:30 PM MDT
Astronomical Twilight 4:51 AM MDT 10:10 PM MDT
Moon 2:18 AM MDT (8/20) 5:14 PM MDT (8/20)
Length of Visible Light 14h 45m
Length of Day
13h 44m
Waning Crescent, 20% of the Moon is Illuminated
Aug 20
Waning Crescent
Aug 25
New
Sep 2
First Quarter
Sep 8
Full
Sep 15
Last Quarter

Hourly Weather History & Observations

Time (MDT) Temp. Dew Point Humidity Pressure Visibility Wind Dir Wind Speed Gust Speed Precip Events Conditions
12:53 AM 59.0 °F 54.0 °F 83% 29.82 in 10.0 mi East 4.6 mph - 0.00 in   Partly Cloudy
1:53 AM 53.1 °F 51.1 °F 93% 29.82 in 10.0 mi NNW 4.6 mph - N/A   Clear
2:53 AM 53.1 °F 51.1 °F 93% 29.80 in 10.0 mi North 4.6 mph - N/A   Clear
3:53 AM 52.0 °F 50.0 °F 93% 29.81 in 10.0 mi North 3.5 mph - N/A   Partly Cloudy
4:53 AM 53.1 °F 50.0 °F 89% 29.82 in 10.0 mi Calm Calm - N/A   Clear
5:53 AM 50.0 °F 48.9 °F 96% 29.84 in 5.0 mi Calm Calm - N/A   Clear
6:53 AM 51.1 °F 48.9 °F 92% 29.86 in 10.0 mi Calm Calm - N/A   Clear
7:53 AM 52.0 °F 51.1 °F 97% 29.90 in 10.0 mi Calm Calm - N/A Fog Mostly Cloudy
8:53 AM 57.9 °F 54.0 °F 87% 29.90 in 10.0 mi North 3.5 mph - N/A   Mostly Cloudy
9:53 AM 64.0 °F 55.0 °F 73% 29.89 in 10.0 mi Calm Calm - N/A   Scattered Clouds
10:53 AM 68.0 °F 53.1 °F 59% 29.89 in 10.0 mi SW 4.6 mph - N/A   Scattered Clouds
11:53 AM 72.0 °F 52.0 °F 49% 29.88 in 10.0 mi South 9.2 mph - N/A   Scattered Clouds
12:53 PM 73.9 °F 53.1 °F 48% 29.85 in 10.0 mi SW 10.4 mph 17.3 mph N/A   Scattered Clouds
1:53 PM 77.0 °F 50.0 °F 39% 29.84 in 10.0 mi WSW 10.4 mph - N/A   Scattered Clouds
2:53 PM 80.1 °F 46.0 °F 30% 29.80 in 10.0 mi SW 12.7 mph 19.6 mph N/A   Scattered Clouds
3:53 PM 81.0 °F 46.0 °F 29% 29.78 in 10.0 mi SW 16.1 mph - N/A   Mostly Cloudy
4:53 PM 69.1 °F 50.0 °F 51% 29.83 in 10.0 mi NNW 18.4 mph 32.2 mph N/A   Mostly Cloudy
5:00 PM 68.0 °F 50.0 °F 52% 29.92 in 10.0 mi NNW 23.0 mph 28.8 mph N/A   Mostly Cloudy
5:21 PM 66.0 °F 51.1 °F 59% 29.92 in 10.0 mi North 21.9 mph 28.8 mph N/A Thunderstorm Scattered Clouds
5:53 PM 64.9 °F 54.0 °F 68% 29.88 in 9.0 mi ENE 10.4 mph - 0.03 in Rain , Thunderstorm Light Rain
6:18 PM 64.9 °F 54.0 °F 68% 29.97 in 10.0 mi East 17.3 mph 24.2 mph 0.00 in Rain Light Rain
6:53 PM 63.0 °F 53.1 °F 70% 29.93 in 10.0 mi East 9.2 mph - 0.00 in Rain , Thunderstorm Light Rain
7:13 PM 63.0 °F 54.0 °F 72% 29.98 in 10.0 mi East 10.4 mph - 0.00 in   Mostly Cloudy
7:53 PM 63.0 °F 55.0 °F 75% 29.92 in 10.0 mi ESE 12.7 mph - 0.00 in   Mostly Cloudy
8:53 PM 63.0 °F 53.1 °F 70% 29.90 in 10.0 mi ESE 6.9 mph - 0.00 in   Overcast
9:53 PM 59.0 °F 54.0 °F 83% 29.92 in 10.0 mi NE 11.5 mph - N/A   Mostly Cloudy
10:53 PM 62.1 °F 53.1 °F 72% 29.91 in 10.0 mi East 10.4 mph - N/A   Scattered Clouds
11:53 PM 59.0 °F 54.0 °F 83% 29.91 in 10.0 mi NNE 15.0 mph - N/A   Overcast